TimeEST,TemperatureF,Dew PointF,Humidity,Sea Level PressureIn,VisibilityMPH,Wind Direction,Wind SpeedMPH,Gust SpeedMPH,PrecipitationIn,Events,Conditions,WindDirDegrees,DateUTC
12:52 AM,25.0,23.0,92,29.99,4.0,Calm,Calm,-,N/A,,Partly Cloudy,0,2013-01-07 05:52:00
1:52 AM,23.0,21.0,92,30.02,3.0,Calm,Calm,-,N/A,,Clear,0,2013-01-07 06:52:00
2:00 AM,23.0,21.2,93,30.00,2.5,Calm,Calm,-,N/A,,Partly Cloudy,0,2013-01-07 07:00:00
2:10 AM,23.0,21.2,93,30.00,4.0,WSW,3.5,-,N/A,,Scattered Clouds,240,2013-01-07 07:10:00
2:52 AM,24.1,23.0,96,30.04,6.0,Calm,Calm,-,N/A,,Overcast,0,2013-01-07 07:52:00
3:52 AM,24.1,23.0,96,30.04,6.0,Calm,Calm,-,N/A,,Overcast,0,2013-01-07 08:52:00
4:52 AM,23.0,21.9,96,30.06,6.0,Calm,Calm,-,N/A,,Partly Cloudy,0,2013-01-07 09:52:00
5:23 AM,21.2,19.4,93,30.05,2.0,Calm,Calm,-,N/A,,Scattered Clouds,0,2013-01-07 10:23:00
5:32 AM,21.2,19.4,93,30.06,4.0,Calm,Calm,-,N/A,,Mostly Cloudy,0,2013-01-07 10:32:00
5:52 AM,23.0,21.9,96,30.10,4.0,Calm,Calm,-,N/A,,Overcast,0,2013-01-07 10:52:00
6:52 AM,25.0,23.0,92,30.13,6.0,ENE,3.5,-,0.00,,Mostly Cloudy,60,2013-01-07 11:52:00
7:52 AM,32.0,24.1,73,30.19,10.0,NNW,13.8,21.9,N/A,,Partly Cloudy,340,2013-01-07 12:52:00
8:52 AM,30.9,21.0,67,30.24,10.0,NNW,11.5,-,N/A,,Clear,330,2013-01-07 13:52:00
9:52 AM,32.0,19.0,59,30.29,10.0,NNW,12.7,21.9,N/A,,Clear,340,2013-01-07 14:52:00
10:52 AM,32.0,18.0,56,30.31,10.0,Variable,6.9,16.1,N/A,,Clear,0,2013-01-07 15:52:00
11:52 AM,32.0,16.0,52,30.31,10.0,NW,10.4,-,N/A,,Clear,310,2013-01-07 16:52:00
12:52 PM,33.1,12.9,43,30.31,10.0,North,10.4,-,N/A,,Clear,350,2013-01-07 17:52:00
1:52 PM,34.0,14.0,44,30.33,10.0,NNW,8.1,-,N/A,,Clear,340,2013-01-07 18:52:00
2:52 PM,34.0,12.9,42,30.34,10.0,NNE,4.6,-,N/A,,Clear,30,2013-01-07 19:52:00
3:52 PM,34.0,14.0,44,30.36,10.0,Calm,Calm,-,N/A,,Clear,0,2013-01-07 20:52:00
4:52 PM,27.0,15.1,61,30.38,10.0,WSW,3.5,-,N/A,,Clear,250,2013-01-07 21:52:00
5:52 PM,23.0,16.0,74,30.40,10.0,Calm,Calm,-,N/A,,Clear,0,2013-01-07 22:52:00
6:52 PM,21.0,16.0,81,30.39,10.0,Calm,Calm,-,N/A,,Clear,0,2013-01-07 23:52:00
7:52 PM,19.9,15.1,81,30.39,9.0,Calm,Calm,-,N/A,,Clear,0,2013-01-08 00:52:00
8:52 PM,12.9,12.0,96,30.38,10.0,Calm,Calm,-,N/A,,Clear,0,2013-01-08 01:52:00
9:52 PM,14.0,10.9,88,30.38,6.0,Calm,Calm,-,N/A,,Clear,0,2013-01-08 02:52:00
10:39 PM,12.2,10.4,92,30.35,1.8,Calm,Calm,-,N/A,,Clear,0,2013-01-08 03:39:00
10:41 PM,12.2,10.4,92,30.35,1.0,Calm,Calm,-,N/A,,Clear,0,2013-01-08 03:41:00
10:50 PM,14.0,10.4,86,30.35,1.8,Calm,Calm,-,N/A,,Clear,0,2013-01-08 03:50:00
10:52 PM,12.9,10.9,92,30.38,3.0,Calm,Calm,-,N/A,,Clear,0,2013-01-08 03:52:00
11:52 PM,12.0,9.0,88,30.37,4.0,Calm,Calm,-,N/A,,Clear,0,2013-01-08 04:52:00